This is the latest recevied weather packets stored in our database for station/object IW4DZV-13. If no packets are shown the sender has not sent any weather packets the latest 10 day(s).
| Time | Temp. | Humidity | Pressure | Rain* | Wind** | Luminosity | Snow |
|---|---|---|---|---|---|---|---|
| 1787770858 | 25.56° C | 77% | 1015.3 hPa | 0.51 mm | - | 0 W/m² | - |
| 1787769955 | 26.11° C | 76% | 1015.1 hPa | 0.51 mm | - | 0 W/m² | - |
| 1787769055 | 26.11° C | 75% | 1014.6 hPa | 0.25 mm | - | 0 W/m² | - |
| 1787768164 | 26.11° C | 74% | 1014.5 hPa | 0.25 mm | - | 0 W/m² | - |
| 1787767257 | 26.67° C | 73% | 1014.4 hPa | 0.25 mm | - | 0 W/m² | - |
| 1787766353 | 26.67° C | 71% | 1014.1 hPa | 0.25 mm | - | 0 W/m² | - |
| 1787765452 | 27.22° C | 70% | 1014.4 hPa | 0.25 mm | - | 11 W/m² | - |
| 1787764553 | 27.78° C | 69% | 1014.6 hPa | 0.25 mm | - | 18 W/m² | - |
| 1787763653 | 28.33° C | 68% | 1014.6 hPa | 0.25 mm | - | 51 W/m² | - |
| 1787762751 | 28.89° C | 67% | 1014.5 hPa | 0.25 mm | - | 79 W/m² | - |
| 1787761851 | 28.89° C | 66% | 1014.6 hPa | 0.25 mm | - | 83 W/m² | - |
| 1787760950 | 29.44° C | 64% | 1014.5 hPa | 0.25 mm | - | 107 W/m² | - |
| 1787760049 | 29.44° C | 63% | 1014.3 hPa | 0.25 mm | - | 111 W/m² | - |
| 1787759149 | 30° C | 57% | 1014.3 hPa | 0.25 mm | - | 105 W/m² | - |
| 1787758249 | 30° C | 54% | 1014.4 hPa | 0.25 mm | - | 76 W/m² | - |
| 1787757349 | 30° C | 58% | 1014.6 hPa | 0.25 mm | - | 95 W/m² | - |
| 1787756448 | 30° C | 56% | 1014.5 hPa | 0.25 mm | - | 109 W/m² | - |
| 1787755548 | 29.44° C | 57% | 1014.4 hPa | 0.25 mm | - | 120 W/m² | - |
| 1787754648 | 29.44° C | 56% | 1014.5 hPa | 0.25 mm | - | 114 W/m² | - |
| 1787753747 | 29.44° C | 57% | 1014.7 hPa | 0.25 mm | - | 113 W/m² | - |
| 1787752850 | 29.44° C | 60% | 1014.8 hPa | 0.25 mm | - | 146 W/m² | - |
| 1787751954 | 30° C | 58% | 1014.8 hPa | 0.25 mm | - | 165 W/m² | - |
| 1787751054 | 30° C | 58% | 1015 hPa | 0.25 mm | - | 167 W/m² | - |
| 1787750146 | 30° C | 55% | 1015 hPa | 0.25 mm | - | 724 W/m² | - |
| 1787749245 | 30° C | 58% | 1015.2 hPa | 0.25 mm | - | 411 W/m² | - |
* Rain since midnight (hover to see other rain measurements)
** Current wind speed in m/s (hover to see current wind gust speed)